EHI
5 14 27 35 40 46 50 50 49 48 50 53 53 48 44 41 34 26 20 16 11 8 6 6 4 2 2 2 1 0 0 0 1 0 0 0 0 0 0 1 1 1 0
10 19 31 37 41 47 52 53 53 52 53 54 53 49 44 40 35 29 22 16 12 9 7 6 4 2 1 1 0 0 0 1 1 0 0 0 0 0 1 2 2 2 1
19 25 34 39 41 47 54 57 58 56 54 53 52 48 43 40 36 31 24 17 13 11 9 6 4 2 1 1 1 1 1 1 1 1 0 0 0 0 1 2 2 3 3
23 27 35 41 42 45 52 57 58 56 52 50 49 46 42 40 36 31 24 16 13 12 10 6 3 2 2 2 2 2 3 2 2 1 1 0 0 0 1 1 1 2 3
24 28 35 43 46 46 49 52 53 51 48 46 45 43 40 37 34 31 25 17 13 10 8 5 2 1 1 1 1 2 3 3 1 1 1 1 0 0 0 0 0 1 1
24 27 36 46 49 47 45 44 45 44 42 40 40 40 38 34 33 31 26 20 14 8 5 4 3 2 1 0 0 0 1 1 1 0 0 0 0 0 0 0 0 0 0
24 27 38 48 50 46 41 37 36 36 34 34 35 36 35 32 29 26 23 19 13 7 3 4 4 3 1 0 0 0 0 0 1 0 0 0 0 0 1 2 2 1 0
25 28 37 46 49 46 40 33 31 31 29 30 32 32 30 26 21 18 15 13 10 6 4 3 4 3 1 1 0 0 0 0 0 0 0 0 1 1 2 3 4 2 1
28 31 37 40 43 42 37 31 29 28 27 28 29 27 24 18 13 11 9 8 7 4 3 3 3 3 3 2 1 0 0 0 0 0 0 0 1 1 1 3 5 5 4
29 34 38 38 36 36 33 30 28 25 24 24 24 21 17 12 9 7 6 6 5 3 2 1 2 2 2 2 1 1 1 0 0 0 0 0 0 0 1 2 5 6 6
27 31 36 36 34 34 31 29 27 24 22 20 17 14 12 9 6 5 4 4 4 3 2 1 1 1 1 1 1 2 1 0 0 0 0 0 0 0 1 2 4 5 5
23 27 31 33 34 33 31 28 26 24 21 18 13 10 8 6 4 3 3 3 4 5 3 2 1 1 0 0 1 2 1 0 0 0 0 0 0 0 1 2 2 3 3
21 22 26 29 30 29 27 26 26 25 21 17 12 9 7 4 1 1 2 3 4 5 3 2 1 0 0 1 1 1 0 0 0 0 0 0 0 1 1 1 1 2 2
22 21 22 24 24 22 21 23 24 25 23 18 12 10 8 4 1 0 1 2 3 3 2 1 1 1 1 1 0 0 0 0 0 0 0 0 0 1 1 1 1 1 1
25 23 22 22 20 17 16 17 20 21 21 17 12 9 8 4 1 0 0 1 1 1 1 0 1 2 2 1 0 0 0 0 0 0 0 0 0 0 0 0 0 0 1
25 25 23 21 18 15 13 13 14 16 17 14 10 8 7 5 2 0 1 2 2 1 1 1 1 1 1 0 0 0 0 0 0 0 0 0 0 0 0 0 0 0 1
22 23 23 20 16 14 13 11 11 13 13 11 8 5 6 6 3 1 1 2 3 3 2 2 2 1 1 0 0 0 0 0 0 0 0 0 0 0 0 0 0 0 1
18 20 21 19 17 15 12 9 8 8 9 7 5 3 4 4 3 1 0 1 2 3 3 3 3 3 2 1 0 0 0 0 0 0 0 0 0 0 0 0 0 0 0
14 16 19 19 16 14 11 8 5 3 4 3 2 2 2 1 1 1 1 0 1 1 2 3 3 3 3 2 1 0 0 0 0 0 0 0 0 0 0 0 0 0 1
8 12 16 16 13 11 9 7 3 2 1 1 1 1 1 0 1 1 1 1 0 1 2 3 4 3 3 3 2 0 0 0 0 0 0 0 0 0 0 0 0 0 1
5 8 12 13 11 9 9 9 7 5 4 3 3 3 3 3 2 2 2 2 2 3 4 4 5 4 3 2 1 0 0 0 0 0 0 0 0 0 0 0 0 0 1
7 8 10 11 11 10 12 13 12 9 7 6 7 7 6 6 5 3 3 5 6 6 5 6 6 5 3 1 0 0 0 0 0 0 0 0 0 0 0 0 0 0 0
9 10 10 10 10 11 13 14 13 10 8 8 8 7 6 5 4 4 5 7 8 7 6 5 5 3 1 0 0 0 0 0 0 0 0 0 0 0 0 0 0 0 0
8 10 11 10 9 10 11 12 12 9 8 7 7 6 4 3 2 4 7 8 8 7 5 2 2 2 1 0 0 0 0 0 0 0 0 0 0 0 0 0 0 0 0
7 9 10 10 9 8 8 8 9 9 7 6 5 5 4 3 3 4 6 7 7 6 4 1 0 0 0 0 0 0 0 0 0 0 0 0 0 0 0 0 0 0 0
9 10 10 10 9 7 6 6 7 9 7 5 4 5 5 4 3 4 6 6 6 6 4 2 1 0 0 0 0 0 0 0 0 0 0 0 0 0 0 0 0 0 0
Wind_Speed
5 8 14 15 14 14 14 14 14 14 14 15 15 15 15 15 14 14 13 12 11 11 10 9 8 7 7 7 6 6 6 6 6 6 6 6 7 7 7 7 6 5 7
9 10 15 15 14 14 14 14 14 14 14 14 15 15 14 14 14 13 12 11 11 10 9 9 7 7 7 6 6 5 6 6 6 6 6 6 6 7 7 7 7 4 7
10 9 12 14 14 14 14 14 14 14 14 14 14 14 13 13 13 12 11 10 10 9 8 8 7 6 6 6 5 5 5 5 5 5 5 3 3 6 6 7 7 7 8
10 9 10 14 13 13 13 13 13 13 13 13 13 13 13 12 12 11 11 10 9 8 8 7 6 6 5 5 5 4 4 5 5 5 2 2 3 5 7 7 8 8 8
9 8 10 15 14 13 13 12 12 13 13 12 12 12 12 11 11 10 10 9 8 7 7 6 6 5 4 4 4 3 3 4 4 3 2 3 2 5 7 8 9 9 9
8 8 9 14 14 14 13 12 12 12 12 12 12 11 11 11 10 9 8 8 7 6 6 6 5 4 4 3 3 3 3 3 3 2 2 3 3 6 7 8 9 9 9
8 7 8 13 13 13 13 13 12 11 11 11 11 10 10 9 8 8 7 7 6 5 5 5 4 3 3 3 3 3 3 4 2 2 2 3 4 6 7 8 8 9 9
8 7 7 13 14 13 13 12 11 10 10 10 9 9 9 8 7 7 6 5 5 5 4 4 4 3 2 2 3 3 4 3 2 1 2 2 4 6 7 7 8 9 9
6 6 5 6 9 12 12 10 10 9 9 9 9 8 8 8 7 6 5 4 4 4 4 3 3 3 2 2 3 3 4 3 1 1 2 2 4 6 7 7 8 9 10
5 5 5 5 4 5 6 10 10 9 8 8 8 8 7 7 6 5 4 4 4 4 4 3 3 3 3 2 3 3 3 2 2 2 2 3 5 6 6 6 7 8 9
5 4 4 4 4 4 5 7 8 9 8 7 6 7 6 2 2 2 3 4 4 4 4 4 3 3 3 3 3 4 2 1 2 2 2 5 6 7 6 6 7 8 9
8 6 4 5 4 4 5 4 3 4 4 3 2 3 2 2 2 2 2 4 4 4 4 3 3 3 2 1 2 3 1 2 2 2 3 7 7 7 7 7 7 8 9
7 6 5 5 5 4 3 3 2 2 2 2 3 3 2 2 1 1 1 1 2 2 1 1 1 1 1 1 1 1 2 2 2 2 4 7 8 8 8 7 7 7 8
6 6 5 5 4 4 3 3 3 2 2 2 2 3 2 2 1 1 1 1 1 1 1 1 1 1 1 2 2 2 3 2 2 2 4 8 8 8 8 8 8 8 8
5 6 5 5 5 4 3 3 3 3 3 3 3 3 3 2 2 2 1 1 1 1 1 1 1 1 2 2 2 3 3 4 4 3 3 7 8 8 9 9 9 9 8
5 5 5 5 5 5 4 3 2 3 2 2 3 3 4 3 3 2 2 1 1 1 1 1 1 2 2 1 2 3 3 3 3 4 3 4 7 7 8 8 9 8 8
4 4 5 5 5 5 5 4 3 3 3 3 3 3 4 4 3 3 2 2 2 1 1 1 1 1 1 1 2 3 2 3 3 3 3 2 3 6 8 8 8 7 7
4 5 5 5 5 5 4 4 3 3 3 2 2 2 3 3 3 3 2 2 1 1 1 1 1 1 1 1 1 2 2 2 2 2 2 2 2 3 5 7 8 8 8
5 5 5 4 5 5 4 2 2 2 2 2 2 2 2 3 3 3 2 2 1 1 1 2 1 1 1 2 2 2 1 1 2 1 1 2 2 2 2 5 7 7 8
3 4 4 4 4 4 4 3 2 1 1 1 1 2 2 2 3 3 2 2 2 1 1 1 1 1 1 1 2 2 2 1 1 1 1 1 2 2 3 3 3 5 8
2 3 4 4 4 4 3 3 3 2 1 1 1 2 2 2 2 2 2 2 2 2 2 2 1 1 1 0 0 2 2 2 2 1 1 2 2 3 3 3 3 3 4
2 3 3 4 4 4 4 3 2 2 1 1 1 1 2 3 3 2 2 2 2 2 2 2 2 1 1 1 1 0 2 3 2 2 2 2 3 2 3 4 3 4 4
2 4 5 5 4 4 4 3 2 2 1 0 0 1 2 2 2 2 2 2 2 3 2 3 3 3 2 2 2 2 2 2 2 2 2 3 3 3 4 4 4 5 5
3 3 4 5 4 4 4 4 4 3 3 3 2 1 1 1 1 2 2 2 2 2 2 3 3 3 3 2 1 1 2 2 2 2 3 2 3 4 4 4 5 5 5
2 2 3 3 3 3 3 4 4 3 2 1 1 1 1 1 1 1 2 2 2 2 2 2 2 2 3 3 3 2 2 1 2 2 3 3 3 3 4 5 4 4 5
1 2 2 3 2 3 3 3 5 5 4 2 1 1 1 1 1 1 1 2 2 2 2 2 2 3 3 3 3 3 3 3 3 3 4 4 4 4 4 4 4 4 4
Wind_Direction
168 164 165 161 157 150 144 140 136 134 133 132 132 134 136 137 139 142 144 146 148 149 148 145 143 140 139 139 141 143 147 149 152 154 160 166 164 164 166 164 165 169 167
152 156 161 159 158 153 148 143 139 137 135 134 135 137 139 140 141 142 145 146 148 148 147 148 146 144 143 143 144 148 152 155 158 163 169 169 171 170 171 174 174 172 171
140 148 156 158 158 155 151 145 142 140 137 137 138 140 142 143 143 144 145 147 148 147 145 146 146 147 146 145 147 153 159 164 164 168 169 166 183 188 186 186 182 182 180
141 145 152 157 158 156 152 148 146 143 141 141 141 142 143 143 145 147 148 149 150 150 151 150 150 148 146 146 150 158 163 167 170 176 160 177 202 205 201 198 191 188 184
141 147 157 158 159 157 155 152 150 147 145 144 144 145 145 147 147 148 150 152 154 156 157 158 155 153 154 156 160 167 174 179 177 172 170 192 209 220 215 207 200 193 190
146 150 159 157 158 158 157 155 153 151 150 149 149 149 149 149 148 147 150 155 158 160 162 164 160 160 167 165 176 191 199 202 186 171 193 208 210 222 218 211 203 199 196
148 151 158 157 158 159 159 158 157 155 154 154 154 152 150 150 150 151 155 159 163 167 169 171 167 174 181 178 197 216 219 223 191 200 211 213 217 222 218 211 206 202 200
146 147 153 162 162 163 164 162 161 159 159 157 155 155 153 153 155 158 162 167 171 177 184 186 181 180 180 196 213 230 239 238 211 220 224 221 221 223 222 214 208 204 202
135 142 149 162 164 164 163 163 163 162 161 159 159 161 162 163 165 167 170 176 180 188 193 190 188 184 198 217 232 239 242 238 206 222 236 225 220 224 226 221 216 212 207
132 145 150 147 148 153 159 167 169 168 165 165 169 172 173 176 175 177 173 182 191 200 204 201 200 204 218 233 250 256 254 252 222 231 238 231 228 232 233 226 222 216 209
156 159 157 153 148 152 158 171 170 171 171 170 174 177 173 164 164 182 190 194 203 209 218 215 210 216 226 240 252 263 266 235 227 236 238 239 236 235 232 228 223 219 215
176 175 167 164 161 160 167 160 159 164 163 164 157 158 150 139 161 184 205 216 214 212 225 227 227 236 249 250 262 273 255 239 238 240 240 243 242 239 235 231 228 224 222
174 174 174 173 170 167 162 150 150 149 149 156 157 151 143 140 158 180 195 249 249 237 235 248 250 250 257 249 252 256 247 245 243 246 247 244 242 242 241 234 230 227 224
164 172 175 175 171 167 159 155 154 157 158 165 164 161 161 167 185 196 197 226 240 241 240 245 243 254 256 254 249 252 250 245 241 242 247 248 245 245 244 238 233 233 230
168 171 179 178 175 170 162 166 164 171 175 175 168 176 172 176 195 204 214 209 226 232 230 235 235 252 260 268 264 258 256 253 250 243 247 252 248 249 248 244 240 239 238
181 179 178 179 177 167 169 173 169 172 168 170 176 183 180 183 191 198 208 213 223 224 226 222 237 243 249 254 272 271 267 262 249 246 242 252 253 252 252 249 246 244 242
182 180 181 186 179 173 175 175 167 166 162 176 183 186 189 188 191 192 200 218 230 221 214 219 251 249 257 265 278 285 280 272 256 249 243 242 251 255 255 252 250 250 249
173 174 186 189 178 174 171 166 156 157 163 177 171 172 189 186 182 184 193 215 228 209 205 204 208 222 258 269 275 288 289 282 264 250 242 244 248 257 261 258 254 250 250
184 178 180 179 175 170 159 145 141 137 164 179 170 175 182 188 189 183 193 209 201 199 212 219 195 198 234 272 274 283 292 287 275 261 266 263 256 256 257 262 258 257 255
179 173 173 168 163 154 142 127 116 115 169 182 188 187 189 193 195 185 193 202 183 193 230 218 211 205 216 252 279 295 293 279 270 255 261 273 268 265 262 264 262 262 260
165 168 172 165 165 151 151 161 165 191 205 213 218 211 203 201 197 193 204 201 187 198 220 222 206 213 235 206 342 316 312 295 273 259 259 261 271 271 268 262 256 259 263
174 174 174 173 170 169 171 165 160 167 188 210 241 237 221 217 210 201 205 196 193 202 221 220 205 198 220 173 159 129 321 323 313 285 272 256 266 268 265 263 256 253 256
174 171 177 183 179 172 159 134 118 98 69 66 264 263 250 225 214 203 202 199 201 195 211 222 211 201 215 214 174 161 174 243 297 301 273 267 274 267 263 262 255 254 251
187 178 178 180 175 172 162 156 159 175 199 215 211 216 255 234 215 209 203 203 206 203 216 227 210 205 198 213 209 205 199 190 200 290 297 280 274 267 266 265 262 259 254
157 165 169 161 163 172 171 170 169 189 205 203 185 187 251 291 230 218 213 205 208 208 221 234 220 205 202 206 199 194 204 215 207 218 274 294 294 276 270 264 260 260 256
114 128 135 143 161 176 176 179 180 188 187 182 189 204 224 246 263 251 229 209 208 213 224 234 233 221 215 217 216 204 196 198 205 209 241 272 285 285 282 269 262 257 255